Terminal Aerodrome Forecast
Issued by NWS Detroit/Pontiac, MI

Home | Current Version | Previous Version | Text Only | Print | Product List | Glossary On
Versions: 1 2 3 4 5 6 7 8 9 10 11 12 13 14 15 16 17 18 19 20 21 22 23 24 25 26 27 28
000
FTUS43 KDTX 291720
TAFDTW
TAF
KDTW 291720Z 2918/3024 22015G24KT P6SM BKN060
      TEMPO 2920/2923 6SM -SHRA SCT030 OVC060
     FM300000 24010KT P6SM SCT070
     FM300600 26006KT P6SM SCT080
     FM301500 24014G23KT P6SM BKN060=

USA.gov is the U.S. government's official web portal to all federal, state and local government web resources and services.